Погода в Фучжоу

Китай     26°00′49″N   119°19′05″E
темп.,
°C
ветер,
м/с
пор.,
м/с
влажн.,
%
обл.,
%
осадки,
мм/ч
давл.,
гПа
погр.,
м
11 мая, вт
вт1123:00+23ю118866 0.0 100837
02:00+22ююз119243 0.0 100636
05:00+21ююз119232 0.0 100726
08:00+26ю127381 0.0 1007368
11:00+32ю264595 0.0 10071269
14:00+34ююз5939100 0.0 10031666
17:00+29ююв2365100 0.0 1003145
20:00+24ююв1288100 0.0 100696
12 мая, ср
ср1223:00+23з1194100 4.4 100865
02:00+22зсз1197100 9.6 1008107
05:00+22юз1196100 1.8 100877
08:00+23ююз0194100 2.1 1009148
11:00+27ююв027966 0.1 1009622
14:00+30ююв126488 0.4 1006915
17:00+28вюв0175100 0.1 100640
20:00+23в2299100 31.4 1009158
13 мая, чт
чт1323:00+23ю119837 0.1 101016
02:00+22ююз009839 0.7 100816
05:00+22юз0098100 0.7 100824
08:00+24сз1293100 2.1 1010291
11:00+26сз0185100 0.1 1009454
14:00+30с126981 0.1 1007888
17:00+28вюв1179100 1.4 1007233
20:00+25юв1193100 1.4 100820
14 мая, пт
пт1423:00+24ююв119685 0.1 100915
02:00+23вюв0097100 0.1 100812
05:00+23ююв119899 0.0 100826
08:00+26ююв128478 0.0 1008484
11:00+32ююз14569 0.0 10081435
14:00+34ююз46467 0.0 10052066
17:00+31ююв36635 0.0 1005497
20:00+25ю2386100 0.0 100792
15 мая, сб
сб1523:00+24ю12905 0.0 100862
02:00+23ю1192100 0.0 100755
05:00+22юз119327 0.0 100830
08:00+27ю12736 0.0 1009475
11:00+33ююз254247 0.0 10081452
14:00+35ююз46365 0.0 10061681
17:00+31ю365142 0.0 1005620
20:00+25ю23801 0.0 100775